Time,TemperatureF,DewpointF,PressureIn,WindDirection,WindDirectionDegrees,WindSpeedMPH,WindSpeedGustMPH,Humidity,HourlyPrecipIn,Conditions,Clouds,dailyrainin,SoftwareType,DateUTC
2013-02-15 00:03:00,24.3,21.0,29.89,NNW,348,0.0,1.0,87,0.00,,,0.00,weatherlink.com 1.10,2013-02-15 05:03:00,
2013-02-15 00:18:00,24.0,20.0,29.89,NNW,348,0.0,0.0,86,0.00,,,0.00,weatherlink.com 1.10,2013-02-15 05:18:00,
2013-02-15 00:33:00,22.4,19.0,29.89,NNW,348,0.0,0.0,88,0.00,,,0.00,weatherlink.com 1.10,2013-02-15 05:33:00,
2013-02-15 00:48:00,22.1,19.0,29.89,NNW,348,0.0,1.0,89,0.00,,,0.00,weatherlink.com 1.10,2013-02-15 05:48:00,
2013-02-15 01:03:00,21.8,19.0,29.89,NNW,348,0.0,0.0,88,0.00,,,0.00,weatherlink.com 1.10,2013-02-15 06:03:00,
2013-02-15 01:18:00,20.9,18.0,29.89,NNW,348,0.0,1.0,89,0.00,,,0.00,weatherlink.com 1.10,2013-02-15 06:18:00,
2013-02-15 01:33:00,20.3,18.0,29.89,NNW,348,0.0,0.0,89,0.00,,,0.00,weatherlink.com 1.10,2013-02-15 06:33:00,
2013-02-15 01:48:00,19.9,18.0,29.88,NNW,348,0.0,0.0,90,0.00,,,0.00,weatherlink.com 1.10,2013-02-15 06:48:00,
2013-02-15 02:03:00,19.5,17.0,29.89,NNW,348,0.0,0.0,91,0.00,,,0.00,weatherlink.com 1.10,2013-02-15 07:03:00,
2013-02-15 02:18:00,19.0,17.0,29.89,NNW,348,0.0,0.0,91,0.00,,,0.00,weatherlink.com 1.10,2013-02-15 07:18:00,
2013-02-15 02:33:00,18.6,16.0,29.89,NNW,348,0.0,0.0,91,0.00,,,0.00,weatherlink.com 1.10,2013-02-15 07:33:00,
2013-02-15 02:48:00,18.0,16.0,29.89,NNW,348,0.0,0.0,91,0.00,,,0.00,weatherlink.com 1.10,2013-02-15 07:48:00,
2013-02-15 03:03:00,17.7,16.0,29.89,NNW,348,0.0,0.0,92,0.00,,,0.00,weatherlink.com 1.10,2013-02-15 08:03:00,
2013-02-15 03:18:00,17.9,16.0,29.88,NNW,348,0.0,0.0,92,0.00,,,0.00,weatherlink.com 1.10,2013-02-15 08:18:00,
2013-02-15 03:33:00,18.1,16.0,29.88,NNW,348,0.0,0.0,93,0.00,,,0.00,weatherlink.com 1.10,2013-02-15 08:33:00,
2013-02-15 03:48:00,18.2,17.0,29.88,NNW,348,0.0,0.0,93,0.00,,,0.00,weatherlink.com 1.10,2013-02-15 08:48:00,
2013-02-15 04:03:00,19.1,18.0,29.88,NNW,348,0.0,0.0,94,0.00,,,0.00,weatherlink.com 1.10,2013-02-15 09:03:00,
2013-02-15 04:18:00,19.4,18.0,29.88,NNW,348,0.0,0.0,93,0.00,,,0.00,weatherlink.com 1.10,2013-02-15 09:18:00,
2013-02-15 04:33:00,18.8,17.0,29.88,NNW,348,0.0,0.0,92,0.00,,,0.00,weatherlink.com 1.10,2013-02-15 09:33:00,
2013-02-15 04:48:00,19.1,17.0,29.88,NNW,348,0.0,0.0,93,0.00,,,0.00,weatherlink.com 1.10,2013-02-15 09:48:00,
2013-02-15 05:03:00,19.8,18.0,29.88,NNW,348,0.0,0.0,93,0.00,,,0.00,weatherlink.com 1.10,2013-02-15 10:03:00,
2013-02-15 05:18:00,20.5,19.0,29.87,NNW,348,0.0,0.0,93,0.00,,,0.00,weatherlink.com 1.10,2013-02-15 10:18:00,
2013-02-15 05:33:00,20.8,19.0,29.86,NNW,348,0.0,0.0,92,0.00,,,0.00,weatherlink.com 1.10,2013-02-15 10:33:00,
2013-02-15 05:48:00,20.5,19.0,29.87,NNW,348,0.0,1.0,92,0.00,,,0.00,weatherlink.com 1.10,2013-02-15 10:48:00,
2013-02-15 06:03:00,20.2,18.0,29.88,NNW,348,0.0,0.0,92,0.00,,,0.00,weatherlink.com 1.10,2013-02-15 11:03:00,
2013-02-15 06:18:00,19.7,18.0,29.88,NNW,348,0.0,0.0,91,0.00,,,0.00,weatherlink.com 1.10,2013-02-15 11:18:00,
2013-02-15 06:33:00,19.1,17.0,29.88,NNW,348,0.0,0.0,91,0.00,,,0.00,weatherlink.com 1.10,2013-02-15 11:33:00,
2013-02-15 06:48:00,18.6,16.0,29.88,NNW,348,0.0,0.0,91,0.00,,,0.00,weatherlink.com 1.10,2013-02-15 11:48:00,
2013-02-15 07:03:00,18.3,16.0,29.88,NNW,348,0.0,0.0,92,0.00,,,0.00,weatherlink.com 1.10,2013-02-15 12:03:00,
2013-02-15 07:18:00,18.0,16.0,29.87,NNW,348,0.0,0.0,92,0.00,,,0.00,weatherlink.com 1.10,2013-02-15 12:18:00,
2013-02-15 07:33:00,18.1,16.0,29.87,NNW,348,0.0,1.0,92,0.00,,,0.00,weatherlink.com 1.10,2013-02-15 12:33:00,
2013-02-15 07:48:00,19.2,18.0,29.88,NNW,348,0.0,0.0,93,0.00,,,0.00,weatherlink.com 1.10,2013-02-15 12:48:00,
2013-02-15 08:03:00,20.8,19.0,29.88,NNW,348,0.0,0.0,93,0.00,,,0.00,weatherlink.com 1.10,2013-02-15 13:03:00,
2013-02-15 08:18:00,21.5,19.0,29.88,NNW,348,0.0,0.0,91,0.00,,,0.00,weatherlink.com 1.10,2013-02-15 13:18:00,
2013-02-15 08:33:00,22.7,21.0,29.88,NNW,348,0.0,0.0,92,0.00,,,0.00,weatherlink.com 1.10,2013-02-15 13:33:00,
2013-02-15 08:48:00,25.4,22.0,29.88,NNW,348,0.0,1.0,88,0.00,,,0.00,weatherlink.com 1.10,2013-02-15 13:48:00,
2013-02-15 09:03:00,26.6,22.0,29.88,NNW,348,0.0,2.0,82,0.00,,,0.00,weatherlink.com 1.10,2013-02-15 14:03:00,
2013-02-15 09:18:00,29.7,24.0,29.88,NNW,348,0.0,0.0,79,0.00,,,0.00,weatherlink.com 1.10,2013-02-15 14:18:00,
2013-02-15 09:34:00,32.3,25.0,29.88,NNW,348,0.0,0.0,74,0.00,,,0.00,weatherlink.com 1.10,2013-02-15 14:34:00,
2013-02-15 09:49:00,35.1,25.0,29.88,NNW,348,0.0,1.0,68,0.00,,,0.00,weatherlink.com 1.10,2013-02-15 14:49:00,
2013-02-15 10:04:00,35.5,26.0,29.87,NNW,348,0.0,1.0,68,0.00,,,0.00,weatherlink.com 1.10,2013-02-15 15:04:00,
2013-02-15 10:19:00,37.4,27.0,29.87,NNW,348,0.0,1.0,65,0.00,,,0.00,weatherlink.com 1.10,2013-02-15 15:19:00,
2013-02-15 10:34:00,37.6,27.0,29.88,NNW,348,0.0,2.0,65,0.00,,,0.00,weatherlink.com 1.10,2013-02-15 15:34:00,
2013-02-15 10:49:00,38.0,27.0,29.87,West,267,1.0,2.0,65,0.00,,,0.00,weatherlink.com 1.10,2013-02-15 15:49:00,
2013-02-15 11:04:00,39.1,28.0,29.86,West,267,0.0,2.0,64,0.00,,,0.00,weatherlink.com 1.10,2013-02-15 16:04:00,
2013-02-15 11:19:00,40.7,28.0,29.86,West,267,1.0,2.0,61,0.00,,,0.00,weatherlink.com 1.10,2013-02-15 16:19:00,
2013-02-15 11:34:00,42.2,29.0,29.85,West,267,0.0,2.0,59,0.00,,,0.00,weatherlink.com 1.10,2013-02-15 16:34:00,
2013-02-15 11:49:00,43.1,29.0,29.84,West,267,0.0,2.0,57,0.00,,,0.00,weatherlink.com 1.10,2013-02-15 16:49:00,
2013-02-15 12:04:00,44.6,29.0,29.83,West,267,0.0,1.0,55,0.00,,,0.00,weatherlink.com 1.10,2013-02-15 17:04:00,
2013-02-15 12:19:00,44.3,29.0,29.83,SSE,165,0.0,2.0,55,0.00,,,0.00,weatherlink.com 1.10,2013-02-15 17:19:00,
2013-02-15 12:34:00,44.5,29.0,29.82,South,187,1.0,4.0,54,0.00,,,0.00,weatherlink.com 1.10,2013-02-15 17:34:00,
2013-02-15 12:49:00,45.6,29.0,29.82,SSW,206,4.0,9.0,52,0.00,,,0.00,weatherlink.com 1.10,2013-02-15 17:49:00,
2013-02-15 13:04:00,46.0,29.0,29.81,SSW,194,3.0,10.0,51,0.00,,,0.00,weatherlink.com 1.10,2013-02-15 18:04:00,
2013-02-15 13:19:00,47.0,29.0,29.81,South,187,7.0,14.0,49,0.00,,,0.00,weatherlink.com 1.10,2013-02-15 18:19:00,
2013-02-15 13:34:00,47.3,29.0,29.81,SSE,163,5.0,7.0,49,0.00,,,0.00,weatherlink.com 1.10,2013-02-15 18:34:00,
2013-02-15 13:49:00,47.6,29.0,29.81,SSE,155,2.0,10.0,48,0.00,,,0.00,weatherlink.com 1.10,2013-02-15 18:49:00,
2013-02-15 14:04:00,48.0,29.0,29.81,South,170,0.0,7.0,48,0.00,,,0.00,weatherlink.com 1.10,2013-02-15 19:04:00,
2013-02-15 14:19:00,47.9,28.0,29.81,SW,217,0.0,8.0,47,0.00,,,0.00,weatherlink.com 1.10,2013-02-15 19:19:00,
2013-02-15 14:34:00,47.7,28.0,29.81,West,275,2.0,9.0,47,0.00,,,0.00,weatherlink.com 1.10,2013-02-15 19:34:00,
2013-02-15 14:49:00,48.3,29.0,29.80,NNW,348,1.0,7.0,47,0.00,,,0.00,weatherlink.com 1.10,2013-02-15 19:49:00,
2013-02-15 15:04:00,48.9,29.0,29.81,WNW,292,2.0,6.0,46,0.00,,,0.00,weatherlink.com 1.10,2013-02-15 20:04:00,
2013-02-15 15:19:00,48.3,29.0,29.81,North,360,1.0,6.0,47,0.00,,,0.00,weatherlink.com 1.10,2013-02-15 20:19:00,
2013-02-15 15:34:00,48.1,29.0,29.81,West,265,1.0,7.0,47,0.00,,,0.00,weatherlink.com 1.10,2013-02-15 20:34:00,
2013-02-15 15:49:00,47.8,28.0,29.81,SSE,159,1.0,10.0,46,0.00,,,0.00,weatherlink.com 1.10,2013-02-15 20:49:00,
2013-02-15 16:04:00,47.3,27.0,29.81,NW,310,0.0,7.0,45,0.00,,,0.00,weatherlink.com 1.10,2013-02-15 21:04:00,
2013-02-15 16:19:00,46.6,27.0,29.81,NE,56,0.0,7.0,46,0.00,,,0.00,weatherlink.com 1.10,2013-02-15 21:19:00,
2013-02-15 16:34:00,45.8,27.0,29.81,ESE,115,1.0,10.0,48,0.00,,,0.00,weatherlink.com 1.10,2013-02-15 21:34:00,
2013-02-15 16:49:00,45.3,27.0,29.82,WSW,246,0.0,6.0,49,0.00,,,0.00,weatherlink.com 1.10,2013-02-15 21:49:00,
2013-02-15 17:04:00,44.3,27.0,29.82,West,275,0.0,2.0,51,0.00,,,0.00,weatherlink.com 1.10,2013-02-15 22:04:00,
2013-02-15 17:19:00,43.7,27.0,29.83,WNW,292,3.0,6.0,52,0.00,,,0.00,weatherlink.com 1.10,2013-02-15 22:19:00,
2013-02-15 17:34:00,43.3,27.0,29.84,WSW,257,0.0,3.0,52,0.00,,,0.00,weatherlink.com 1.10,2013-02-15 22:34:00,
2013-02-15 17:49:00,42.6,27.0,29.84,NNW,338,1.0,2.0,54,0.00,,,0.00,weatherlink.com 1.10,2013-02-15 22:49:00,
2013-02-15 18:04:00,41.9,27.0,29.84,NNE,21,0.0,3.0,55,0.00,,,0.00,weatherlink.com 1.10,2013-02-15 23:04:00,
2013-02-15 18:19:00,40.9,26.0,29.85,NE,53,0.0,3.0,56,0.00,,,0.00,weatherlink.com 1.10,2013-02-15 23:19:00,
2013-02-15 18:34:00,40.3,26.0,29.85,NNW,348,0.0,4.0,57,0.00,,,0.00,weatherlink.com 1.10,2013-02-15 23:34:00,
2013-02-15 18:49:00,39.6,26.0,29.86,North,355,1.0,5.0,59,0.00,,,0.00,weatherlink.com 1.10,2013-02-15 23:49:00,
2013-02-15 19:05:00,39.4,26.0,29.86,NNE,19,0.0,3.0,59,0.00,,,0.00,weatherlink.com 1.10,2013-02-16 00:05:00,
2013-02-15 19:20:00,39.5,26.0,29.86,NE,48,0.0,2.0,58,0.00,,,0.00,weatherlink.com 1.10,2013-02-16 00:20:00,
2013-02-15 19:35:00,39.2,25.0,29.86,NE,42,0.0,1.0,57,0.00,,,0.00,weatherlink.com 1.10,2013-02-16 00:35:00,
2013-02-15 19:50:00,39.4,24.0,29.86,NNW,345,0.0,4.0,55,0.00,,,0.00,weatherlink.com 1.10,2013-02-16 00:50:00,
2013-02-15 20:05:00,38.9,24.0,29.86,SE,142,1.0,3.0,55,0.00,,,0.00,weatherlink.com 1.10,2013-02-16 01:05:00,
2013-02-15 20:20:00,39.1,23.0,29.86,NW,321,0.0,4.0,53,0.00,,,0.00,weatherlink.com 1.10,2013-02-16 01:20:00,
2013-02-15 20:35:00,38.4,24.0,29.86,NW,319,0.0,4.0,56,0.00,,,0.00,weatherlink.com 1.10,2013-02-16 01:35:00,
2013-02-15 21:05:00,36.0,24.0,29.87,NW,325,0.0,3.0,63,0.00,,,0.00,weatherlink.com 1.10,2013-02-16 02:05:00,
2013-02-15 21:20:00,36.4,27.0,29.86,NW,324,0.0,1.0,68,0.00,,,0.00,weatherlink.com 1.10,2013-02-16 02:20:00,
2013-02-15 21:35:00,34.0,26.0,29.87,NW,323,0.0,0.0,72,0.00,,,0.00,weatherlink.com 1.10,2013-02-16 02:35:00,
2013-02-15 21:50:00,33.5,26.0,29.87,NW,324,0.0,2.0,74,0.00,,,0.00,weatherlink.com 1.10,2013-02-16 02:50:00,
2013-02-15 22:05:00,33.5,27.0,29.86,NW,323,0.0,0.0,76,0.00,,,0.00,weatherlink.com 1.10,2013-02-16 03:05:00,
2013-02-15 22:20:00,33.1,28.0,29.86,NW,324,0.0,1.0,80,0.00,,,0.00,weatherlink.com 1.10,2013-02-16 03:20:00,
2013-02-15 22:35:00,32.9,27.0,29.86,NW,323,0.0,0.0,80,0.00,,,0.00,weatherlink.com 1.10,2013-02-16 03:35:00,
2013-02-15 22:50:00,32.5,27.0,29.86,NW,324,0.0,1.0,80,0.00,,,0.00,weatherlink.com 1.10,2013-02-16 03:50:00,
2013-02-15 23:05:00,32.4,27.0,29.86,NW,323,0.0,0.0,79,0.00,,,0.00,weatherlink.com 1.10,2013-02-16 04:05:00,
2013-02-15 23:20:00,32.4,27.0,29.86,NW,323,0.0,1.0,81,0.00,,,0.00,weatherlink.com 1.10,2013-02-16 04:20:00,
2013-02-15 23:35:00,32.0,27.0,29.86,NW,324,0.0,0.0,82,0.00,,,0.00,weatherlink.com 1.10,2013-02-16 04:35:00,
2013-02-15 23:50:00,31.6,27.0,29.86,NW,325,0.0,0.0,83,0.00,,,0.00,weatherlink.com 1.10,2013-02-16 04:50:00,